Regional Weather Roundup
Issued by NWS Bismarck, ND

Home | Current Version | Previous Version | Text Only | Print | Product List | Glossary On
Versions: 1 2 3 4 5 6 7 8 9 10 11 12 13 14 15 16 17 18 19 20 21 22 23 24 25 26 27 28 29 30 31 32 33 34 35 36 37 38 39 40 41 42 43 44 45 46 47 48 49 50
000
ASUS43 KBIS 260610
RWRBIS

NWR BROADCAST TEXT
NATIONAL WEATHER SERVICE BISMARCK ND
100 AM CDT TUE MAY 26 2015

NOTE: "FAIR" INDICATES FEW OR NO CLOUDS BELOW 12,000 FEET WITH NO
SIGNIFICANT WEATHER AND/OR OBSTRUCTIONS TO VISIBILITY.


CITY           SKY/WX    TMP DP  RH WIND       PRES   REMARKS
WILLISTON      CLEAR     52  47  83 SW6       29.89S
MINOT          CLEAR     62  46  55 W15       29.83S
MINOT AFB      CLEAR     62  49  63 W15       29.82S
BISMARCK       CLEAR     57  52  83 W6        29.90R
DICKINSON      CLEAR     50  46  86 SW10      29.92R
GARRISON         N/A     56  49  77 W7        29.87R
HETTINGER ARPT FOG       48  46  93 CALM      29.95R VSB 3/4
JAMESTOWN      CLOUDY    59  52  77 S10       29.86R
BEACH          CLOUDY    45  45 100 SE5       29.94S
CARRINGTON     MOCLDY    59  59 100 W10       29.85R
CROSBY         FAIR      59  48  67 SW12      29.88S
HARVEY         FAIR      55  46  71 S3        29.84R
HAZEN          FAIR      54  48  82 SW9       29.90R
LINTON         FAIR      50  50 100 SW5       29.91R
MANDAN         FAIR      55  54  94 W10       29.90R
OAKES            N/A     54  54 100 SW3       29.90R
STANLEY        FAIR      55  54  94 NW10      29.89S
WATFORD CITY   FAIR      46  46 100 SW6       29.89S
$$

CITY           SKY/WX    TMP DP  RH WIND       PRES   REMARKS
GRAND FORKS    CLEAR     57  52  83 S12       29.83R
GRAND FORKS AF CLEAR     57  47  70 S9        29.83R
DEVILS LAKE    MOCLDY    61  52  72 SW10      29.81S
FARGO          CLEAR     51  49  92 SW3       29.87R
CANDO          FAIR      63  43  48 S7        29.80S
CAVALIER       FAIR      61  55  82 S10       29.78R
GRAFTON        FAIR      57  50  77 S9        29.81R
LANGDON        FAIR      59  54  82 SW12      29.80R
ROLLA          CLOUDY    55  41  58 W9        29.82S
WALHALLA         N/A     61  50  67 SW5       29.77R
$$

CITY           SKY/WX    TMP DP  RH WIND       PRES   REMARKS
ABERDEEN       PTCLDY    53  50  89 N3        29.90R
MOBRIDGE       PTCLDY    53  53 100 N3        29.90R
BUFFALO          N/A     50  49  96 SE5       29.89R
RAPID CITY     CLOUDY    53  51  93 N3        29.96S
GLASGOW        CLEAR     53  45  74 E8        29.89R
SIDNEY         CLEAR     52  46  82 CALM      29.91R
WOLF POINT     CLEAR     51  45  79 CALM      29.90S
GLENDIVE       PTCLDY    52  46  82 S3        29.93R
MILES CITY     PTCLDY    54  50  86 S7        29.90S
BAKER          PTCLDY    46  45  96 E6        29.94S
$$

CITY           SKY/WX    TMP DP  RH WIND       PRES   REMARKS
BILLINGS       CLEAR     57  46  66 E3        29.90S
GREAT FALLS    LGT RAIN  52  48  86 NW8       29.90F
REGINA         CLEAR     57  39  51 SW8       29.85R
ESTEVAN        PTCLDY    59  46  63 W9        29.87R
$$



USA.gov is the U.S. government's official web portal to all federal, state and local government web resources and services.